Siga o Apolo11 no Facebook   Siga o Apolo11 no Twiiter
Ciência, Espaço e Tecnologia




Elementos Keplerianos formato Two Line

Para que um programa de rastreio possa saber a localização exata de qualquer satélite no espaço e assim poder rastreá-lo corretamente, é necessário que ele seja carregado com algumas informações.

Estas informações são chamadas de Elementos Orbitais ou Elementos Keplerianos e consistem em 2 linhas com dezenas de números. Esses números nada mais são que os parâmetros orbitais do satélite, tais como altitude, atitude, excentricidade da órbita, número de órbitas por dia, etc.

Com base nestas informações o programa é capaz de determinar com bastante exatidão a posição de qualquer satélite no espaço e nos informar em qual horário este estará dentro do alcance de nossa estação. Para que isso seja feito com precisão é necessário que os dados estejam sempre bem atualizadas.

Devido aos parâmetros orbitais serem descritos em 2 linhas, estes formato é também conhecido internacionalmente por 2line (leia-se Two Line”).

Para atualizar seu programa de rastreio basta copiar os dados disponibilizados e fornece-los ao programa. Nossos elementos orbitais são atualizados diariamente.

NOAATodos os satélites ambientais da série NOAA
30 DiasSatélites lançados nos últimos 30 dias
ISSSatélites e foguetes relacionados à Estação Espacial Internacional
HAMSatélites construídos por radiomadores
CUBESatélites tipo cubo, com 10 centímetros de lado
METEOSatélites voltados à previsão do tempo
EDUSatélites construídos e operados por universidades
VIS100 satélites mais brilhantes que podem ser vistos a olho nú



Satélites série NOAA
NOAA 1 [-]              
1 04793U 70106A   21100.43085656 -.00000039  00000-0  33097-4 0  9997
2 04793 101.6128 169.0541 0032050  84.6068 286.7424 12.53998492303317
NOAA 2 (ITOS-D) [-]     
1 06235U 72082A   21100.29689147 -.00000033  00000-0  83207-4 0  9996
2 06235 101.8988  75.8789 0003990 178.9206 287.8919 12.53133481217714
NOAA 3 [-]              
1 06920U 73086A   21100.52345178 -.00000048  00000-0 -20868-4 0  9992
2 06920 102.1525  76.7891 0006597  12.0925 134.6505 12.40343459147112
NOAA 4 [-]              
1 07529U 74089A   21100.44985156 -.00000045  00000-0  10745-5 0  9999
2 07529 101.8565  74.9098 0008762 212.2376 299.9749 12.53149019122306
NOAA 5 [-]              
1 09057U 76077A   21100.36478678 -.00000041  00000-0  27204-4 0  9996
2 09057 102.0357  69.1514 0009588 218.0244 311.9799 12.37758612 20157
TIROS N [-]             
1 11060U 78096A   21100.41337087  .00000034  00000-0  37450-4 0  9995
2 11060  98.6952 159.1571 0009649 313.0474  46.9893 14.18303421410223
NOAA 6 [-]              
1 11416U 79057A   21100.56128843  .00000045  00000-0  32310-4 0  9994
2 11416  98.6672 105.7039 0011530  95.2602 264.9898 14.33627471179496
NOAA 7 [-]              
1 12553U 81059A   21100.55028664 -.00000008  00000-0  18962-4 0  9998
2 12553  99.0551 133.1808 0010473 265.1811  94.8167 14.17293249 56479
NOAA 8 [-]              
1 13923U 83022A   21100.49750613 -.00000001  00000-0  17219-4 0  9998
2 13923  98.6513  88.6944 0015916  39.7685 320.4659 14.28731696980587
NOAA 9 [-]              
1 15427U 84123A   21100.36671720 -.00000002  00000-0  21931-4 0  9996
2 15427  98.9867  62.4870 0014184 317.2891 196.2915 14.16128086875318
NOAA 10 [-]             
1 16969U 86073A   21100.42924325  .00000007  00000-0  20085-4 0  9996
2 16969  98.5300  90.6209 0012943 138.5144  24.4320 14.28129917799025
NOAA 11 [-]             
1 19531U 88089A   21100.46418061 -.00000009  00000-0  16146-4 0  9998
2 19531  98.4061 108.9842 0010965 353.4575   6.6455 14.15270925679570
NOAA 12 [-]             
1 21263U 91032A   21100.55432212 -.00000006  00000-0  15135-4 0  9993
2 21263  98.5066 107.8253 0013996 161.6242 198.5446 14.25937005555037
NOAA 13 [-]             
1 22739U 93050A   21100.44630137 -.00000007  00000-0  18398-4 0  9993
2 22739  98.4673  97.9362 0010245 138.9106 221.2840 14.12780359425918
NOAA 14 [-]             
1 23455U 94089A   21100.54930553 -.00000021  00000-0  10743-4 0  9990
2 23455  98.4997 144.4391 0010471 124.5516 235.6647 14.14159799355523
NOAA 15 [B]             
1 25338U 98030A   21100.51734759  .00000038  00000-0  34256-4 0  9991
2 25338  98.6894 129.6269 0011499 116.6144 243.6216 14.26021358191567
NOAA 16 [-]             
1 26536U 00055A   21100.54883220  .00000011  00000-0  28523-4 0  9994
2 26536  98.6928 167.9535 0009756 325.6084  34.4456 14.13275032356207
NOAA 17 [-]             
1 27453U 02032A   21100.65053677 -.00000481  00000-0 -18659-3 0  9998
2 27453  98.6203  47.2985 0013279  93.0922 267.1782 14.25052952977239
NOAA 18 [B]             
1 28654U 05018A   21100.59048908  .00000091  00000-0  73249-4 0  9995
2 28654  99.0002 165.1669 0015322 113.0567 247.2221 14.12596249818861
NOAA 19 [+]             
1 33591U 09005A   21100.54719390  .00000056  00000-0  55577-4 0  9991
2 33591  99.1892 119.5525 0013288 326.3965  33.6362 14.12459620627074
SUOMI NPP [+]           
1 37849U 11061A   21100.58698017 -.00000005  00000-0  18400-4 0  9991
2 37849  98.7325  40.1829 0001521 100.0187  72.8900 14.19556301489784
NOAA 20 [+]             
1 43013U 17073A   21100.51838362 -.00000004  00000-0  18573-4 0  9992
2 43013  98.7158  40.2113 0001017 100.6229 259.5061 14.19541051175801


IMAGENS DE SATÉLITES !    Clique e conheça nosso Vídeo Workshop de sensoriamento remoto e imagens meteorológicas.
Apolo11.com - Todos os direitos reservados - 2001 - 2021
Política de Privacidade

"Quanto mais uma pessoa compreende a seriedade da vida, melhor dela se pode rir" - Schopenhauer